Audubon, IA

10:55 AM CST on November 22, 2017 (GMT -0600)
Audubon County

Weather History for KADU - March, 2013

Change the Weather History Date:

Monday, March 18, 2013

  Actual Average Record
Temperature  
Mean Temperature 27 °F -  
Max Temperature 33 °F 47 °F 105 °F (1998)
Min Temperature 21 °F 27 °F 0 °F (1965)
Degree Days  
Heating Degree Days 38    
Moisture  
Dew Point 23 °F    
Average Humidity 77    
Maximum Humidity 93    
Minimum Humidity 59    
Precipitation  
Precipitation 0.00 in - - ()
Sea Level Pressure  
Sea Level Pressure 29.84 in    
Wind  
Wind Speed 10 mph (West)    
Max Wind Speed 24 mph    
Max Gust Speed 33 mph    
Visibility 8 miles    
Events      
Averages and records for this station are not official NWS values.
T = Trace of Precipitation, MM = Missing Value Source: NWS Daily Summary

Daily Weather History Graph

Daily Weather History Graph

Search for Another Location

Airport or City:

Trip Planner

Search our weather history database for the weather conditions in past years. The results will help you decide how hot, cold, wet, or windy it might be!

Date:

Astronomy

Mar. 18, 2013 Rise Set
Actual Time 7:25 AM CDT 7:29 PM CDT
Civil Twilight 6:58 AM CDT 7:57 PM CDT
Nautical Twilight 6:25 AM CDT 8:30 PM CDT
Astronomical Twilight 5:52 AM CDT 9:03 PM CDT
Moon 11:21 AM CDT (3/18) 1:34 AM CDT (3/18)
Length of Visible Light 12h 59m
Length of Day
12h 04m
Waxing Crescent, 41% of the Moon is Illuminated
Mar 18
Waxing Crescent
Mar 19
First Quarter
Mar 27
Full
Apr 2
Last Quarter
Apr 10
New

Hourly Weather History & Observations

Time (CDT) Temp. Windchill Dew Point Humidity Pressure Visibility Wind Dir Wind Speed Gust Speed Precip Events Conditions
12:15 AM 33.8 °F - 30.2 °F 87% 29.82 in 2.5 mi Calm Calm - N/A   Overcast
12:35 AM 33.8 °F 30.8 °F 30.2 °F 87% 29.81 in 2.5 mi SSE 3.5 mph - N/A   Mostly Cloudy
12:55 AM 33.8 °F 29.6 °F 30.2 °F 87% 29.80 in 2.0 mi SSE 4.6 mph - N/A   Mostly Cloudy
1:15 AM 32.0 °F 27.5 °F 30.2 °F 93% 29.80 in 3.0 mi SSE 4.6 mph - N/A   Mostly Cloudy
1:35 AM 32.0 °F 26.4 °F 30.2 °F 93% 29.78 in 3.0 mi SE 5.8 mph - N/A   Mostly Cloudy
1:55 AM 32.0 °F 25.6 °F 30.2 °F 93% 29.77 in 3.0 mi SSE 6.9 mph - N/A   Mostly Cloudy
2:15 AM 32.0 °F 26.4 °F 30.2 °F 93% 29.76 in 2.5 mi SSE 5.8 mph - N/A   Overcast
2:35 AM 32.0 °F 24.8 °F 30.2 °F 93% 29.75 in 3.0 mi SSE 8.1 mph - N/A   Overcast
2:55 AM 32.0 °F 23.6 °F 30.2 °F 93% 29.73 in 3.0 mi SSE 10.4 mph 16.1 mph N/A   Mostly Cloudy
3:15 AM 32.0 °F 21.2 °F 30.2 °F 93% 29.71 in 3.0 mi SSE 16.1 mph - N/A   Mostly Cloudy
3:35 AM 32.0 °F 22.5 °F 30.2 °F 93% 29.71 in 4.0 mi SSE 12.7 mph 20.7 mph N/A   Mostly Cloudy
3:55 AM 33.8 °F 27.0 °F 30.2 °F 87% 29.75 in 3.0 mi SSW 8.1 mph - N/A   Overcast
4:15 AM 33.8 °F 27.0 °F 30.2 °F 87% 29.74 in 2.5 mi SSW 8.1 mph - N/A   Overcast
4:35 AM 33.8 °F 27.0 °F 30.2 °F 87% 29.73 in 1.8 mi SSW 8.1 mph - N/A   Overcast
4:55 AM 33.8 °F 28.6 °F 30.2 °F 87% 29.73 in 1.2 mi SSW 5.8 mph - N/A   Overcast
5:15 AM 33.8 °F 28.6 °F 30.2 °F 87% 29.73 in 4.0 mi SSW 5.8 mph - N/A   Overcast
5:35 AM 33.8 °F 27.7 °F 30.2 °F 87% 29.72 in 3.0 mi SSW 6.9 mph - N/A   Overcast
5:55 AM 33.8 °F 26.4 °F 30.2 °F 87% 29.72 in 3.0 mi SSW 9.2 mph - N/A   Overcast
6:15 AM 33.8 °F 25.8 °F 30.2 °F 87% 29.72 in 3.0 mi SW 10.4 mph - N/A   Overcast
6:35 AM 33.8 °F 25.8 °F 30.2 °F 87% 29.72 in 5.0 mi WSW 10.4 mph 16.1 mph N/A   Overcast
6:55 AM 33.8 °F 27.0 °F 30.2 °F 87% 29.72 in 5.0 mi WSW 8.1 mph - N/A   Overcast
7:15 AM 33.8 °F 27.0 °F 30.2 °F 87% 29.73 in 7.0 mi WNW 8.1 mph - N/A   Overcast
7:35 AM 33.8 °F 25.8 °F 32.0 °F 93% 29.73 in 10.0 mi WNW 10.4 mph 19.6 mph N/A   Overcast
7:55 AM 33.8 °F 23.9 °F 30.2 °F 87% 29.74 in 10.0 mi WNW 15.0 mph 20.7 mph N/A   Mostly Cloudy
8:15 AM 32.0 °F 22.5 °F 28.4 °F 87% 29.75 in 10.0 mi WNW 12.7 mph 20.7 mph N/A   Scattered Clouds
8:35 AM 32.0 °F 23.6 °F 28.4 °F 87% 29.75 in 10.0 mi WNW 10.4 mph 17.3 mph N/A   Mostly Cloudy
8:55 AM 30.2 °F 18.1 °F 26.6 °F 86% 29.76 in 10.0 mi WNW 18.4 mph 26.5 mph N/A   Mostly Cloudy
9:15 AM 30.2 °F 18.1 °F 26.6 °F 86% 29.77 in 10.0 mi NW 18.4 mph 24.2 mph N/A   Scattered Clouds
9:35 AM 28.4 °F 17.5 °F 24.8 °F 86% 29.77 in 10.0 mi WNW 13.8 mph 24.2 mph N/A   Clear
9:55 AM 28.4 °F 18.0 °F 23.0 °F 80% 29.77 in 10.0 mi NW 12.7 mph 17.3 mph N/A   Clear
10:35 AM 30.2 °F 20.8 °F 24.8 °F 80% 29.79 in 10.0 mi WNW 11.5 mph 17.3 mph N/A   Clear
10:55 AM 30.2 °F 19.3 °F 24.8 °F 80% 29.79 in 10.0 mi WNW 15.0 mph 20.7 mph N/A   Clear
11:15 AM 30.2 °F 19.8 °F 21.2 °F 69% 29.80 in 10.0 mi WNW 13.8 mph 24.2 mph N/A   Clear
11:35 AM 30.2 °F 19.3 °F 21.2 °F 69% 29.81 in 10.0 mi NW 15.0 mph 24.2 mph N/A   Clear
11:55 AM 30.2 °F 18.1 °F 19.4 °F 64% 29.82 in 10.0 mi WNW 18.4 mph 33.4 mph N/A   Clear
12:15 PM 30.2 °F 18.9 °F 19.4 °F 64% 29.83 in 10.0 mi WNW 16.1 mph 25.3 mph N/A   Scattered Clouds
12:35 PM 28.4 °F 16.2 °F 19.4 °F 69% 29.84 in 10.0 mi WNW 17.3 mph 25.3 mph N/A   Mostly Cloudy
12:55 PM 28.4 °F 14.7 °F 19.4 °F 69% 29.85 in 10.0 mi WNW 21.9 mph 31.1 mph N/A   Scattered Clouds
1:15 PM 28.4 °F 17.0 °F 17.6 °F 64% 29.86 in 10.0 mi NW 15.0 mph 29.9 mph N/A   Mostly Cloudy
1:35 PM 28.4 °F 15.4 °F 17.6 °F 64% 29.87 in 10.0 mi WNW 19.6 mph 28.8 mph N/A   Overcast
1:55 PM 26.6 °F 15.2 °F 17.6 °F 69% 29.86 in 10.0 mi NW 13.8 mph 25.3 mph N/A   Overcast
2:15 PM 26.6 °F 15.7 °F 17.6 °F 69% 29.87 in 10.0 mi WNW 12.7 mph 24.2 mph N/A   Mostly Cloudy
2:35 PM 26.6 °F 15.7 °F 17.6 °F 69% 29.87 in 7.0 mi WNW 12.7 mph 25.3 mph N/A   Mostly Cloudy
2:55 PM 28.4 °F 16.2 °F 19.4 °F 69% 29.88 in 10.0 mi WNW 17.3 mph 24.2 mph N/A   Mostly Cloudy
3:15 PM 28.4 °F 16.6 °F 17.6 °F 64% 29.89 in 10.0 mi WNW 16.1 mph 27.6 mph N/A   Overcast
3:35 PM 28.4 °F 16.2 °F 17.6 °F 64% 29.90 in 10.0 mi WNW 17.3 mph 28.8 mph N/A   Mostly Cloudy
3:55 PM 26.6 °F 15.2 °F 17.6 °F 69% 29.89 in 10.0 mi WNW 13.8 mph 27.6 mph N/A   Overcast
4:15 PM 28.4 °F 15.4 °F 19.4 °F 69% 29.90 in 10.0 mi WNW 19.6 mph 28.8 mph N/A   Mostly Cloudy
4:35 PM 28.4 °F 14.1 °F 17.6 °F 64% 29.90 in 10.0 mi WNW 24.2 mph 31.1 mph N/A   Mostly Cloudy
4:55 PM 28.4 °F 14.1 °F 15.8 °F 59% 29.91 in 10.0 mi WNW 24.2 mph 32.2 mph N/A   Scattered Clouds
5:15 PM 28.4 °F 16.6 °F 17.6 °F 64% 29.91 in 10.0 mi WNW 16.1 mph 28.8 mph N/A   Scattered Clouds
5:35 PM 28.4 °F 16.6 °F 15.8 °F 59% 29.92 in 10.0 mi WNW 16.1 mph 24.2 mph N/A   Scattered Clouds
5:55 PM 28.4 °F 16.6 °F 15.8 °F 59% 29.92 in 10.0 mi WNW 16.1 mph 27.6 mph N/A   Scattered Clouds
6:15 PM 28.4 °F 17.5 °F 17.6 °F 64% 29.92 in 10.0 mi WNW 13.8 mph 23.0 mph N/A   Scattered Clouds
6:35 PM 28.4 °F 17.5 °F 15.8 °F 59% 29.93 in 10.0 mi WNW 13.8 mph 24.2 mph N/A   Clear
6:55 PM 28.4 °F 16.6 °F 17.6 °F 64% 29.93 in 10.0 mi WNW 16.1 mph 21.9 mph N/A   Clear
7:15 PM 28.4 °F 17.5 °F 15.8 °F 59% 29.94 in 10.0 mi WNW 13.8 mph 20.7 mph N/A   Clear
7:35 PM 28.4 °F 18.0 °F 17.6 °F 64% 29.94 in 10.0 mi WNW 12.7 mph 19.6 mph N/A   Clear
7:55 PM 28.4 °F 19.1 °F 17.6 °F 64% 29.95 in 10.0 mi WNW 10.4 mph 17.3 mph N/A   Clear
8:15 PM 26.6 °F 17.5 °F 17.6 °F 69% 29.95 in 10.0 mi WNW 9.2 mph 18.4 mph N/A   Clear
8:35 PM 26.6 °F 17.5 °F 17.6 °F 69% 29.96 in 10.0 mi WNW 9.2 mph - N/A   Clear
8:55 PM 26.6 °F 17.5 °F 17.6 °F 69% 29.97 in 10.0 mi WNW 9.2 mph - N/A   Clear
9:15 PM 26.6 °F 19.1 °F 17.6 °F 69% 29.97 in 10.0 mi WNW 6.9 mph - N/A   Clear
9:35 PM 24.8 °F 16.9 °F 17.6 °F 74% 29.98 in 10.0 mi NW 6.9 mph - N/A   Clear
9:55 PM 24.8 °F 16.1 °F 17.6 °F 74% 29.99 in 10.0 mi NW 8.1 mph - N/A   Clear
10:15 PM 24.8 °F 16.1 °F 17.6 °F 74% 29.99 in 10.0 mi NW 8.1 mph - N/A   Clear
10:55 PM 23.0 °F 11.7 °F 15.8 °F 74% 29.97 in 10.0 mi NNW 11.5 mph - N/A   Clear
11:15 PM 23.0 °F 11.7 °F 15.8 °F 74% 29.98 in 10.0 mi NW 11.5 mph - N/A   Clear
11:35 PM 21.2 °F 10.9 °F 15.8 °F 80% 30.00 in 10.0 mi NW 9.2 mph 17.3 mph N/A   Clear
11:55 PM 21.2 °F 10.9 °F 15.8 °F 80% 30.00 in 10.0 mi WNW 9.2 mph - N/A   Clear